Location: Astronomy Club of Akron Observatory
(40.9700°N, 81.5606°W)
Time: 18:35:30
(UTC-04:00)

ISS - Pass Details

Date: 20 July 2018
Orbit: 402 x 408 km, 51.6° (Epoch: 19 July)

Event Time Altitude Azimuth Distance (km) Brightness Sun altitude
Rises 23:55:11 0° 275° (W) 2,318 0.4 -24.5°
Reaches altitude 10° 23:57:40 10° 294° (WNW) 1,461 -0.4 -24.7°
Maximum altitude 00:00:07 19° 342° (NNW) 1,037 -1.0 -24.9°
Drops below altitude 10° 00:02:34 10° 30° (NNE) 1,467 -0.6 -25.1°
Sets 00:05:04 0° 49° (NE) 2,330 0.3 -25.3°
